Location: Stara Lesna
(49.1528°N, 20.2911°E)
Time: 18:30:17
(UTC+02:00)

CZ-4 R/B - Pass Details

Date: 13 July 2020
Orbit: 682 x 752 km, 98.5° (Epoch: 10 August)

Event Time Altitude Azimuth Distance (km) Brightness Sun altitude
Rises 01:12:53 0° 14° (NNE) 3,079 8.8 -18.8°
Reaches altitude 10° 01:15:07 10° 15° (NNE) 2,165 7.6 -18.7°
Maximum altitude 01:19:52 89° 99° (E) 712 3.8 -18.6°
Enters shadow 01:21:48 37° 195° (SSW) 1,094 4.3 -18.6°
